Location: ???????
(55.4362°N, 38.1183°E)
Time: 00:57:55
(UTC+00:00)

METEOR M2 - Pass Details

Date: 01 December 2021
Orbit: 818 x 827 km, 98.4° (Epoch: 28 January)

Event Time Altitude Azimuth Distance (km) Brightness Sun altitude
Rises 15:18:53 0° 153° (SSE) 3,358 ? -18.2°
Reaches altitude 10° 15:21:14 10° 151° (SSE) 2,428 ? -18.5°
Maximum altitude 15:26:35 70° 69° (ENE) 884 ? -19.3°
Drops below altitude 10° 15:31:57 10° 347° (NNW) 2,440 ? -20.0°
Sets 15:34:19 0° 346° (NNW) 3,376 ? -20.3°
